[[{"header":{"parameterUnit":"m.s-1","parameterCategory":1,"la1":30.2991,"la2":30.254,"lo1":-89.0895,"lo2":-89.0444,"dy":0.0017,"dx":0.0017,"nx":28,"ny":28,"refTime":"2025-11-29T03:00:00:Z","depth":0,"parameterNumber":2,"parameterNumberName":"U-component_of_WINDS"},"data":[0,0,0,0,0,0,0,0,0,0,0,0,0,0,0,0,0,0,0,0,0,0,0,0,0,0,0,0,0,0,0,0,0,0,0,0,0,0,0,0,0,0,0,0,0,0,0,0,0,0,0,0,0,0,0,0,0,0,-4.7343,-4.7343,0,-4.7347,-4.7347,-4.7347,-4.7138,-4.7133,-4.7127,-4.7122,-4.7128,-4.7133,-4.7139,0,0,0,0,0,0,0,0,0,0,0,0,0,-4.7156,-4.716,-4.7343,-4.7343,-4.7343,-4.7347,-4.7347,-4.7347,-4.7139,-4.7132,-4.7126,-4.7119,-4.7126,-4.7133,-4.7139,0,0,0,0,0,0,0,0,0,0,0,0,0,-4.7206,-4.7162,-4.7343,-4.724,-4.723,-4.7347,-4.7347,-4.7347,-4.714,-4.7132,-4.7124,-4.7116,-4.7124,-4.7132,-4.714,-4.7356,0,0,-4.7164,-4.7168,0,0,0,0,0,0,0,0,-4.7204,-4.7213,-4.7255,-4.7247,-4.7237,-4.7233,-4.7283,-4.735,-4.7143,-4.7175,-4.7122,-4.7112,-4.717,-4.7174,-4.7193,-4.7356,-4.7357,-4.7165,-4.717,-4.7173,-4.7176,0,0,0,0,0,0,0,-4.72,-4.7212,-4.7344,-4.7256,-4.7245,-4.7193,-4.7191,-4.7295,-4.7219,-4.7171,-4.7156,-4.7159,-4.7163,-4.7186,-4.7191,-4.7357,-4.7165,-4.7172,-4.7177,-4.718,-4.7696,-4.7705,0,0,0,0,0,0,-4.7211,-4.7211,-4.7344,-4.7344,-4.7199,-4.7203,-4.7201,-4.7243,-4.7217,-4.7205,-4.7166,-4.715,-4.7176,-4.7182,-4.7191,-4.7441,-4.7173,-4.7181,-4.7186,-4.7687,-4.7698,-4.7708,0,0,0,0,0,0,-4.7208,-4.7225,-4.7344,-4.7273,-4.7285,-4.7215,-4.7264,-4.7247,-4.7269,-4.7214,-4.7199,-4.7203,-4.717,-4.718,-4.7316,-4.7439,-4.7185,-4.7192,-4.7677,-4.7691,-4.7703,-4.7945,0,0,0,0,0,0,-4.7203,-4.7225,-4.7306,-4.7277,-4.7289,-4.747,-4.7272,-4.7254,-4.7283,-4.7261,-4.7244,-4.7233,-4.7164,-4.7305,-4.7324,-4.7445,-4.7198,-4.7666,-4.7683,-4.7699,-4.7926,-4.7965,-4.7999,0,0,0,0,0,-4.7197,-4.7375,-4.7312,-4.7329,-4.7389,-4.7477,-4.7484,-4.74,-4.7294,-4.7375,-4.7339,-4.7234,-4.7422,-4.7321,-4.734,-4.7466,-4.7658,-4.7678,-4.7698,-4.791,-4.7957,-4.7998,0,0,0,0,0,0,-4.7422,-4.7369,-4.7298,-4.7472,-4.7481,-4.7442,-4.7542,-4.7454,-4.7494,-4.7472,-4.7366,-4.7364,-4.7517,-4.7505,-4.7393,-4.7673,-4.7521,-4.7546,-4.7676,-4.7721,-4.7756,-4.7756,-4.7205,0,0,0,0,0,-4.7491,-4.7567,-4.7517,-4.7675,-4.7682,-4.7612,-4.7647,-4.7582,-4.7587,-4.759,-4.7563,-4.7573,-4.7634,-4.7676,-4.7729,-4.7923,-4.7916,-4.8019,-4.8055,-4.8085,-4.8108,-4.8209,-4.8253,-4.7774,-4.7774,-4.7773,0,0,-4.7636,-4.7617,-4.7671,-4.7719,-4.7718,-4.7799,-4.7617,-4.771,-4.7768,-4.7604,-4.773,-4.7712,-4.7716,-4.7882,-4.7953,-4.7876,-4.8239,-4.8111,-4.8135,-4.8141,-4.8234,-4.8279,-4.832,-4.7787,-4.7785,-4.7783,0,0,-4.7941,-4.7934,-4.8064,-4.8067,-4.8067,-4.8019,-4.8051,-4.8025,-4.8006,-4.8132,-4.8009,-4.8078,-4.8185,-4.8192,-4.821,-4.8517,-4.8421,-4.8538,-4.8728,-4.8827,-4.8865,-4.8898,-4.9007,-4.9047,-4.856,-4.8561,-4.8561,0,-4.8121,-4.8237,-4.8143,-4.8244,-4.8268,-4.8122,-4.8253,-4.826,-4.8279,-4.8299,-4.8212,-4.8343,-4.8335,-4.85,-4.8575,-4.8594,-4.8627,-4.8539,-4.8867,-4.8899,-4.8929,-4.9031,-4.9073,-4.8575,-4.8573,-4.8572,-4.8571,0,-4.8458,-4.8541,-4.8646,-4.8666,-4.8702,-4.8819,-4.8742,-4.879,-4.8721,-4.8683,-4.8812,-4.8797,-4.8844,-4.8878,-4.8813,-4.9035,-4.8986,-4.8885,-4.873,-4.899,-4.9085,-4.9123,-4.8595,-4.859,-4.8586,-4.8582,0,0,-4.8905,-4.8871,-4.8911,-4.8918,-4.8908,-4.8969,-4.9079,-4.9124,-4.9167,-4.9185,-4.9273,-4.9367,-4.9273,-4.9293,-4.9227,-4.9314,-4.9558,-4.9201,-4.92,-4.9268,-4.9801,-4.9877,-4.9924,-4.9494,-4.9501,-4.9507,-4.98,0,-4.9201,-4.9384,-4.9302,-4.9494,-4.9569,-4.943,-4.9525,-4.9529,-4.9496,-4.9554,-4.9516,-4.9585,-4.9455,-4.9467,-4.9547,-4.9511,-4.9663,-4.9489,-4.9576,-4.958,-4.9579,-4.9973,-5.0054,-5.0332,-4.9837,-4.9843,-4.9847,0,-4.957,-4.9601,-4.9801,-4.9776,-4.9804,-4.9891,-4.9925,-4.9983,-4.9984,-4.9953,-4.9977,-4.989,-4.9995,-4.9841,-4.9984,-4.9868,-4.9898,-4.9886,-4.9895,-4.99,-4.973,-4.9989,-5.0419,-5.0461,-4.9905,-4.99,-4.9896,0,-4.9875,-4.9968,-5.0099,-5.0109,-5.0083,-5.0147,-5.014,-5.0133,-5.0165,-5.0195,-5.0215,-5.0258,-5.0281,-5.0317,-5.0244,-5.0139,-5.0397,-5.0238,-5.0375,-5.0377,-5.0435,-5.0433,-5.0876,-5.0457,-5.0456,-5.0455,-5.0454,0,-5.0213,-5.0341,-5.0236,-5.0317,-5.0455,-5.0359,-5.05,-5.0477,-5.0472,-5.0545,-5.0429,-5.0501,-5.04,-5.0463,-5.0406,-5.0533,-5.0545,-5.0523,-5.0507,-5.0534,-5.0537,-5.0552,-5.0531,-5.0466,-5.0464,-5.0461,-5.046,0,-5.0578,-5.0513,-5.0646,-5.0611,-5.0604,-5.0708,-5.0677,-5.0751,-5.0708,-5.0804,-5.0821,-5.0755,-5.0822,-5.0753,-5.0816,-5.0778,-5.0949,-5.0904,-5.0948,-5.0935,-5.1076,-5.1064,-5.1545,-5.1603,-5.1147,-5.1152,-5.1155,0,-5.0798,-5.0893,-5.0867,-5.0907,-5.0906,-5.0974,-5.1005,-5.0915,-5.0953,-5.0961,-5.1034,-5.1091,-5.1132,-5.1246,-5.1204,-5.1251,-5.1207,-5.1372,-5.1213,-5.1237,-5.1209,-5.1204,-5.1212,-5.1405,-5.141,-5.1414,-5.1418,0,-5.1195,-5.1158,-5.1208,-5.1247,-5.1288,-5.1315,-5.1332,-5.1373,-5.1279,-5.1327,-5.1394,-5.1426,-5.1489,-5.1547,-5.1582,-5.1574,-5.1482,-5.1468,-5.1502,-5.1531,-5.1552,-5.1542,-5.1036,-5.1458,-5.1454,-5.1451,-5.1449,-5.1447,-5.1493,-5.1571,-5.1564,-5.1623,-5.1627,-5.1646,-5.1713,-5.1679,-5.1732,-5.1776,-5.172,-5.1802,-5.18,-5.1837,-5.184,-5.1904,-5.1833,-5.1883,-5.1896,-5.1909,-5.193,-5.1543,-5.191,-5.1909,-5.1907,-5.1906,-5.1906,0,-5.1884,-5.1872,-5.1928,-5.1956,-5.2003,-5.191,-5.1925,-5.197,-5.2044,-5.205,-5.2092,-5.2168,-5.2224,-5.2187,-5.2234,-5.2292,-5.225,-5.2307,-5.2302,-5.2301,-5.199,-5.1956,-5.234,-5.234,-5.234,-5.234,-5.234,-5.2339,-5.2092,-5.2218,-5.218,-5.2306,-5.2293,-5.2372,-5.2388,-5.2405,-5.2409,-5.25,-5.2545,-5.252,-5.2508,-5.2554,-5.2601,-5.2588,-5.2611,-5.2683,-5.2656,-5.2366,-5.2323,-5.2283,-5.2249,-5.2689,-5.2689,-5.2961,-5.2963,-5.2965]},{"header":{"parameterUnit":"m.s-1","parameterCategory":1,"la1":30.2991,"la2":30.254,"lo1":-89.0895,"lo2":-89.0444,"dy":0.0017,"dx":0.0017,"nx":28,"ny":28,"refTime":"2025-11-29T03:00:00:Z","depth":0,"parameterNumber":3,"parameterNumberName":"V-component_of_WINDS"},"data":[0,0,0,0,0,0,0,0,0,0,0,0,0,0,0,0,0,0,0,0,0,0,0,0,0,0,0,0,0,0,0,0,0,0,0,0,0,0,0,0,0,0,0,0,0,0,0,0,0,0,0,0,0,0,0,0,0,0,-4.6341,-4.6342,0,-4.6427,-4.6427,-4.6428,-4.6371,-4.6369,-4.6366,-4.6364,-4.6447,-4.6452,-4.6456,0,0,0,0,0,0,0,0,0,0,0,0,0,-4.6122,-4.6126,-4.6341,-4.6342,-4.6343,-4.6426,-4.6428,-4.6429,-4.6372,-4.6368,-4.6365,-4.6362,-4.6446,-4.6451,-4.6457,0,0,0,0,0,0,0,0,0,0,0,0,0,-4.6213,-4.6128,-4.6341,-4.6325,-4.6324,-4.6426,-4.6428,-4.6429,-4.6372,-4.6368,-4.6364,-4.6361,-4.6444,-4.6451,-4.6457,-4.6579,0,0,-4.6479,-4.6482,0,0,0,0,0,0,0,0,-4.6208,-4.6221,-4.6326,-4.6326,-4.6325,-4.6384,-4.6381,-4.6479,-4.6373,-4.6354,-4.6363,-4.6359,-4.6429,-4.6437,-4.6462,-4.6583,-4.6586,-4.6479,-4.6484,-4.6487,-4.6489,0,0,0,0,0,0,0,-4.6202,-4.6217,-4.6374,-4.6327,-4.6327,-4.6311,-4.632,-4.6399,-4.6412,-4.6355,-4.6351,-4.6362,-4.6428,-4.6455,-4.6463,-4.6587,-4.6479,-4.6485,-4.649,-4.6492,-4.6809,-4.6813,0,0,0,0,0,0,-4.6198,-4.6212,-4.6372,-4.6377,-4.6256,-4.6318,-4.6328,-4.6369,-4.6411,-4.6414,-4.6366,-4.636,-4.6445,-4.6455,-4.6466,-4.6609,-4.6487,-4.6493,-4.6497,-4.6805,-4.681,-4.6815,0,0,0,0,0,0,-4.6193,-4.6212,-4.6368,-4.6294,-4.6312,-4.6326,-4.6373,-4.6373,-4.64,-4.6419,-4.6421,-4.6391,-4.6442,-4.6456,-4.6551,-4.6611,-4.6496,-4.6503,-4.68,-4.6807,-4.6812,-4.6897,0,0,0,0,0,0,-4.6187,-4.6211,-4.6259,-4.6295,-4.6317,-4.6454,-4.6377,-4.6377,-4.6412,-4.6405,-4.6443,-4.6446,-4.644,-4.6541,-4.6558,-4.6618,-4.6508,-4.6795,-4.6803,-4.681,-4.6889,-4.6905,-4.6919,0,0,0,0,0,-4.618,-4.6279,-4.6262,-4.6281,-4.6377,-4.6457,-4.6469,-4.6462,-4.6418,-4.6464,-4.6477,-4.6445,-4.6602,-4.6551,-4.657,-4.6633,-4.6791,-4.6801,-4.681,-4.6882,-4.6902,-4.6919,0,0,0,0,0,0,-4.6248,-4.6283,-4.6265,-4.6379,-4.6416,-4.6448,-4.6507,-4.6484,-4.6533,-4.6524,-4.6512,-4.6521,-4.6619,-4.6636,-4.6578,-4.6751,-4.6689,-4.6703,-4.6737,-4.6757,-4.6772,-4.6765,-4.6514,0,0,0,0,0,-4.6277,-4.6341,-4.6367,-4.6466,-4.6485,-4.6493,-4.6528,-4.6519,-4.6556,-4.6571,-4.659,-4.6626,-4.6683,-4.6721,-4.6774,-4.6891,-4.6897,-4.6944,-4.6959,-4.6972,-4.6983,-4.7044,-4.7064,-4.6846,-4.6846,-4.6846,0,0,-4.6336,-4.6363,-4.6404,-4.648,-4.6507,-4.6572,-4.6506,-4.6578,-4.6625,-4.6581,-4.6672,-4.6687,-4.6726,-4.6832,-4.6879,-4.6848,-4.7045,-4.6984,-4.6994,-4.6998,-4.7055,-4.7076,-4.7094,-4.6852,-4.6851,-4.685,0,0,-4.6477,-4.6505,-4.6589,-4.6618,-4.666,-4.6665,-4.6685,-4.672,-4.6729,-4.682,-4.6787,-4.6842,-4.6942,-4.697,-4.6998,-4.7148,-4.7119,-4.7165,-4.7245,-4.7304,-4.7322,-4.7337,-4.7388,-4.7407,-4.7177,-4.7177,-4.7178,0,-4.6545,-4.6643,-4.6634,-4.6708,-4.6742,-4.6706,-4.6789,-4.6817,-4.6875,-4.6897,-4.6862,-4.6985,-4.7009,-4.712,-4.7156,-4.718,-4.7201,-4.7161,-4.732,-4.7335,-4.7349,-4.7398,-4.7418,-4.7183,-4.7182,-4.7181,-4.7181,0,-4.6723,-4.6791,-4.6853,-4.6911,-4.6951,-4.703,-4.7031,-4.7073,-4.706,-4.7067,-4.7159,-4.7186,-4.7244,-4.727,-4.7258,-4.7378,-4.7358,-4.7322,-4.7259,-4.7375,-4.7421,-4.744,-4.719,-4.7188,-4.7187,-4.7185,0,0,-4.691,-4.6961,-4.6984,-4.7008,-4.7052,-4.7104,-4.7179,-4.7237,-4.7272,-4.7312,-4.7374,-4.7458,-4.7425,-4.7456,-4.7447,-4.7499,-4.7614,-4.7456,-4.7457,-4.7483,-4.7745,-4.7771,-4.7793,-4.7595,-4.7599,-4.7602,-4.7742,0,-4.7052,-4.7185,-4.7179,-4.7303,-4.7365,-4.7331,-4.7396,-4.7429,-4.7438,-4.7489,-4.7498,-4.7557,-4.751,-4.7528,-4.7579,-4.7589,-4.7666,-4.7579,-4.765,-4.7653,-4.7641,-4.7818,-4.7845,-4.7976,-4.776,-4.7763,-4.7765,0,-4.7235,-4.7283,-4.7413,-4.7446,-4.7472,-4.7531,-4.7582,-4.7633,-4.7669,-4.7671,-4.7706,-4.7687,-4.7761,-4.7697,-4.7798,-4.7739,-4.7768,-4.7777,-4.7782,-4.7787,-4.7715,-4.7826,-4.8018,-4.8037,-4.7793,-4.7791,-4.7789,0,-4.7356,-4.7453,-4.7543,-4.7565,-4.7606,-4.7648,-4.7667,-4.7699,-4.7733,-4.7777,-4.7799,-4.7851,-4.7879,-4.7919,-4.7914,-4.7869,-4.8016,-4.7952,-4.8018,-4.8019,-4.805,-4.8048,-4.8248,-4.8071,-4.8071,-4.8071,-4.807,0,-4.7515,-4.7595,-4.7597,-4.7653,-4.7741,-4.7733,-4.782,-4.7834,-4.7862,-4.7918,-4.7891,-4.7944,-4.7936,-4.7988,-4.7984,-4.8067,-4.808,-4.8083,-4.8081,-4.8085,-4.8084,-4.8102,-4.8093,-4.8076,-4.8075,-4.8074,-4.8073,0,-4.7664,-4.7669,-4.7765,-4.7796,-4.7805,-4.7869,-4.7895,-4.7946,-4.7952,-4.8023,-4.8039,-4.8048,-4.8107,-4.8107,-4.8175,-4.8173,-4.8274,-4.8262,-4.8262,-4.8259,-4.8325,-4.8318,-4.8542,-4.857,-4.8377,-4.8379,-4.8381,0,-4.7765,-4.7826,-4.7864,-4.79,-4.7921,-4.798,-4.8015,-4.8008,-4.8045,-4.8089,-4.8134,-4.8192,-4.8237,-4.8334,-4.8345,-4.8397,-4.8385,-4.846,-4.8392,-4.8394,-4.8384,-4.838,-4.8385,-4.8473,-4.8475,-4.8477,-4.8478,0,-4.7941,-4.794,-4.7993,-4.8046,-4.8088,-4.8129,-4.8167,-4.8197,-4.8194,-4.8237,-4.8298,-4.8334,-4.8403,-4.8459,-4.8509,-4.8526,-4.8501,-4.8499,-4.8517,-4.8521,-4.8518,-4.8519,-4.8297,-4.8494,-4.8492,-4.8491,-4.849,-4.849,-4.8068,-4.812,-4.8155,-4.8213,-4.8241,-4.8276,-4.8326,-4.8338,-4.8389,-4.8446,-4.8438,-4.8506,-4.8538,-4.8601,-4.8623,-4.8674,-4.8648,-4.8674,-4.868,-4.8687,-4.8693,-4.8511,-4.8683,-4.8683,-4.8682,-4.8682,-4.8682,0,-4.8242,-4.8262,-4.8316,-4.837,-4.8415,-4.839,-4.8429,-4.8468,-4.8529,-4.8561,-4.8607,-4.8676,-4.873,-4.8746,-4.8798,-4.8836,-4.8826,-4.885,-4.8846,-4.885,-4.8715,-4.8693,-4.8857,-4.8857,-4.8857,-4.8857,-4.8857,-4.8857,-4.8338,-4.8424,-4.8427,-4.8526,-4.8545,-4.8612,-4.8637,-4.8668,-4.8694,-4.8773,-4.8818,-4.8829,-4.8854,-4.8907,-4.8955,-4.8958,-4.8977,-4.9006,-4.9004,-4.8877,-4.886,-4.8843,-4.8823,-4.9011,-4.9011,-4.9135,-4.9136,-4.9137]}]]